Index of /20260411/WXO-DD/model_gdps/15km/12/198
Name Last modified Size Description
Parent Directory -
20260411T12Z_MSC_GDPS_AbsoluteVorticity_IsbL-0200_LatLon0.15_PT198H.grib2 2026-04-11 16:54 1.5M
20260411T12Z_MSC_GDPS_AbsoluteVorticity_IsbL-0250_LatLon0.15_PT198H.grib2 2026-04-11 16:54 1.3M
20260411T12Z_MSC_GDPS_AbsoluteVorticity_IsbL-0500_LatLon0.15_PT198H.grib2 2026-04-11 16:54 1.5M
20260411T12Z_MSC_GDPS_AbsoluteVorticity_IsbL-0700_LatLon0.15_PT198H.grib2 2026-04-11 16:54 1.3M
20260411T12Z_MSC_GDPS_AbsoluteVorticity_IsbL-0850_LatLon0.15_PT198H.grib2 2026-04-11 16:54 1.6M
20260411T12Z_MSC_GDPS_AirTemp-Max_AGL-2m_LatLon0.15_PT198H.grib2 2026-04-11 16:54 753K
20260411T12Z_MSC_GDPS_AirTemp-Min_AGL-2m_LatLon0.15_PT198H.grib2 2026-04-11 16:54 800K
20260411T12Z_MSC_GDPS_AirTemp_AGL-120m_LatLon0.15_PT198H.grib2 2026-04-11 16:54 913K
20260411T12Z_MSC_GDPS_AirTemp_AGL-2m_LatLon0.15_PT198H.grib2 2026-04-11 16:54 1.0M
20260411T12Z_MSC_GDPS_AirTemp_AGL-40m_LatLon0.15_PT198H.grib2 2026-04-11 16:54 935K
20260411T12Z_MSC_GDPS_AirTemp_AGL-80m_LatLon0.15_PT198H.grib2 2026-04-11 16:54 922K
20260411T12Z_MSC_GDPS_AirTemp_IsbL-0001_LatLon0.15_PT198H.grib2 2026-04-11 16:54 704K
20260411T12Z_MSC_GDPS_AirTemp_IsbL-0005_LatLon0.15_PT198H.grib2 2026-04-11 16:54 741K
20260411T12Z_MSC_GDPS_AirTemp_IsbL-0010_LatLon0.15_PT198H.grib2 2026-04-11 16:54 752K
20260411T12Z_MSC_GDPS_AirTemp_IsbL-0020_LatLon0.15_PT198H.grib2 2026-04-11 16:54 699K
20260411T12Z_MSC_GDPS_AirTemp_IsbL-0030_LatLon0.15_PT198H.grib2 2026-04-11 16:54 752K
20260411T12Z_MSC_GDPS_AirTemp_IsbL-0050_LatLon0.15_PT198H.grib2 2026-04-11 16:54 815K
20260411T12Z_MSC_GDPS_AirTemp_IsbL-0100_LatLon0.15_PT198H.grib2 2026-04-11 16:54 960K
20260411T12Z_MSC_GDPS_AirTemp_IsbL-0150_LatLon0.15_PT198H.grib2 2026-04-11 16:54 1.0M
20260411T12Z_MSC_GDPS_AirTemp_IsbL-0175_LatLon0.15_PT198H.grib2 2026-04-11 16:54 968K
20260411T12Z_MSC_GDPS_AirTemp_IsbL-0200_LatLon0.15_PT198H.grib2 2026-04-11 16:54 1.0M
20260411T12Z_MSC_GDPS_AirTemp_IsbL-0225_LatLon0.15_PT198H.grib2 2026-04-11 16:54 1.0M
20260411T12Z_MSC_GDPS_AirTemp_IsbL-0250_LatLon0.15_PT198H.grib2 2026-04-11 16:54 1.0M
20260411T12Z_MSC_GDPS_AirTemp_IsbL-0275_LatLon0.15_PT198H.grib2 2026-04-11 16:54 1.0M
20260411T12Z_MSC_GDPS_AirTemp_IsbL-0300_LatLon0.15_PT198H.grib2 2026-04-11 16:54 1.0M
20260411T12Z_MSC_GDPS_AirTemp_IsbL-0350_LatLon0.15_PT198H.grib2 2026-04-11 16:54 931K
20260411T12Z_MSC_GDPS_AirTemp_IsbL-0400_LatLon0.15_PT198H.grib2 2026-04-11 16:54 946K
20260411T12Z_MSC_GDPS_AirTemp_IsbL-0450_LatLon0.15_PT198H.grib2 2026-04-11 16:54 969K
20260411T12Z_MSC_GDPS_AirTemp_IsbL-0500_LatLon0.15_PT198H.grib2 2026-04-11 16:54 1.0M
20260411T12Z_MSC_GDPS_AirTemp_IsbL-0550_LatLon0.15_PT198H.grib2 2026-04-11 16:54 1.0M
20260411T12Z_MSC_GDPS_AirTemp_IsbL-0600_LatLon0.15_PT198H.grib2 2026-04-11 16:54 904K
20260411T12Z_MSC_GDPS_AirTemp_IsbL-0650_LatLon0.15_PT198H.grib2 2026-04-11 16:54 932K
20260411T12Z_MSC_GDPS_AirTemp_IsbL-0700_LatLon0.15_PT198H.grib2 2026-04-11 16:54 964K
20260411T12Z_MSC_GDPS_AirTemp_IsbL-0750_LatLon0.15_PT198H.grib2 2026-04-11 16:54 1.0M
20260411T12Z_MSC_GDPS_AirTemp_IsbL-0800_LatLon0.15_PT198H.grib2 2026-04-11 16:54 1.1M
20260411T12Z_MSC_GDPS_AirTemp_IsbL-0850_LatLon0.15_PT198H.grib2 2026-04-11 16:54 1.1M
20260411T12Z_MSC_GDPS_AirTemp_IsbL-0875_LatLon0.15_PT198H.grib2 2026-04-11 16:54 1.2M
20260411T12Z_MSC_GDPS_AirTemp_IsbL-0900_LatLon0.15_PT198H.grib2 2026-04-11 16:54 1.2M
20260411T12Z_MSC_GDPS_AirTemp_IsbL-0925_LatLon0.15_PT198H.grib2 2026-04-11 16:54 1.1M
20260411T12Z_MSC_GDPS_AirTemp_IsbL-0950_LatLon0.15_PT198H.grib2 2026-04-11 16:54 1.2M
20260411T12Z_MSC_GDPS_AirTemp_IsbL-0970_LatLon0.15_PT198H.grib2 2026-04-11 16:54 1.2M
20260411T12Z_MSC_GDPS_AirTemp_IsbL-0985_LatLon0.15_PT198H.grib2 2026-04-11 16:54 1.1M
20260411T12Z_MSC_GDPS_AirTemp_IsbL-1000_LatLon0.15_PT198H.grib2 2026-04-11 16:54 1.1M
20260411T12Z_MSC_GDPS_AirTemp_IsbL-1015_LatLon0.15_PT198H.grib2 2026-04-11 16:54 1.1M
20260411T12Z_MSC_GDPS_Albedo_Sfc_LatLon0.15_PT198H.grib2 2026-04-11 16:54 250K
20260411T12Z_MSC_GDPS_CAPE_Sfc_LatLon0.15_PT198H.grib2 2026-04-11 16:54 3.6M
20260411T12Z_MSC_GDPS_CIN_Sfc_LatLon0.15_PT198H.grib2 2026-04-11 16:54 2.8M
20260411T12Z_MSC_GDPS_CloudWater_EAtm_LatLon0.15_PT198H.grib2 2026-04-11 16:54 533K
20260411T12Z_MSC_GDPS_ConvectivePrecip-Accum_Sfc_LatLon0.15_PT198H.grib2 2026-04-11 16:54 3.6M
20260411T12Z_MSC_GDPS_DewPointDepression_AGL-2m_LatLon0.15_PT198H.grib2 2026-04-11 16:54 759K
20260411T12Z_MSC_GDPS_DewPointDepression_IsbL-0010_LatLon0.15_PT198H.grib2 2026-04-11 16:54 2.6K
20260411T12Z_MSC_GDPS_DewPointDepression_IsbL-0020_LatLon0.15_PT198H.grib2 2026-04-11 16:54 53K
20260411T12Z_MSC_GDPS_DewPointDepression_IsbL-0030_LatLon0.15_PT198H.grib2 2026-04-11 16:54 70K
20260411T12Z_MSC_GDPS_DewPointDepression_IsbL-0050_LatLon0.15_PT198H.grib2 2026-04-11 16:54 354K
20260411T12Z_MSC_GDPS_DewPointDepression_IsbL-0100_LatLon0.15_PT198H.grib2 2026-04-11 16:54 378K
20260411T12Z_MSC_GDPS_DewPointDepression_IsbL-0150_LatLon0.15_PT198H.grib2 2026-04-11 16:54 466K
20260411T12Z_MSC_GDPS_DewPointDepression_IsbL-0175_LatLon0.15_PT198H.grib2 2026-04-11 16:54 553K
20260411T12Z_MSC_GDPS_DewPointDepression_IsbL-0200_LatLon0.15_PT198H.grib2 2026-04-11 16:54 648K
20260411T12Z_MSC_GDPS_DewPointDepression_IsbL-0225_LatLon0.15_PT198H.grib2 2026-04-11 16:54 775K
20260411T12Z_MSC_GDPS_DewPointDepression_IsbL-0250_LatLon0.15_PT198H.grib2 2026-04-11 16:54 885K
20260411T12Z_MSC_GDPS_DewPointDepression_IsbL-0275_LatLon0.15_PT198H.grib2 2026-04-11 16:54 895K
20260411T12Z_MSC_GDPS_DewPointDepression_IsbL-0300_LatLon0.15_PT198H.grib2 2026-04-11 16:54 934K
20260411T12Z_MSC_GDPS_DewPointDepression_IsbL-0350_LatLon0.15_PT198H.grib2 2026-04-11 16:54 968K
20260411T12Z_MSC_GDPS_DewPointDepression_IsbL-0400_LatLon0.15_PT198H.grib2 2026-04-11 16:54 1.0M
20260411T12Z_MSC_GDPS_DewPointDepression_IsbL-0450_LatLon0.15_PT198H.grib2 2026-04-11 16:54 1.0M
20260411T12Z_MSC_GDPS_DewPointDepression_IsbL-0500_LatLon0.15_PT198H.grib2 2026-04-11 16:54 1.0M
20260411T12Z_MSC_GDPS_DewPointDepression_IsbL-0550_LatLon0.15_PT198H.grib2 2026-04-11 16:54 1.1M
20260411T12Z_MSC_GDPS_DewPointDepression_IsbL-0600_LatLon0.15_PT198H.grib2 2026-04-11 16:54 1.1M
20260411T12Z_MSC_GDPS_DewPointDepression_IsbL-0650_LatLon0.15_PT198H.grib2 2026-04-11 16:54 1.1M
20260411T12Z_MSC_GDPS_DewPointDepression_IsbL-0700_LatLon0.15_PT198H.grib2 2026-04-11 16:54 1.1M
20260411T12Z_MSC_GDPS_DewPointDepression_IsbL-0750_LatLon0.15_PT198H.grib2 2026-04-11 16:54 1.1M
20260411T12Z_MSC_GDPS_DewPointDepression_IsbL-0800_LatLon0.15_PT198H.grib2 2026-04-11 16:54 1.2M
20260411T12Z_MSC_GDPS_DewPointDepression_IsbL-0850_LatLon0.15_PT198H.grib2 2026-04-11 16:54 1.2M
20260411T12Z_MSC_GDPS_DewPointDepression_IsbL-0875_LatLon0.15_PT198H.grib2 2026-04-11 16:54 1.1M
20260411T12Z_MSC_GDPS_DewPointDepression_IsbL-0900_LatLon0.15_PT198H.grib2 2026-04-11 16:54 1.1M
20260411T12Z_MSC_GDPS_DewPointDepression_IsbL-0925_LatLon0.15_PT198H.grib2 2026-04-11 16:54 1.0M
20260411T12Z_MSC_GDPS_DewPointDepression_IsbL-0950_LatLon0.15_PT198H.grib2 2026-04-11 16:54 1.0M
20260411T12Z_MSC_GDPS_DewPointDepression_IsbL-0970_LatLon0.15_PT198H.grib2 2026-04-11 16:54 1.0M
20260411T12Z_MSC_GDPS_DewPointDepression_IsbL-0985_LatLon0.15_PT198H.grib2 2026-04-11 16:54 1.0M
20260411T12Z_MSC_GDPS_DewPointDepression_IsbL-1000_LatLon0.15_PT198H.grib2 2026-04-11 16:54 1.0M
20260411T12Z_MSC_GDPS_DewPointDepression_IsbL-1015_LatLon0.15_PT198H.grib2 2026-04-11 16:54 913K
20260411T12Z_MSC_GDPS_DewPoint_AGL-2m_LatLon0.15_PT198H.grib2 2026-04-11 16:54 616K
20260411T12Z_MSC_GDPS_DownwardLongwaveRadiationFlux-Accum_Sfc_LatLon0.15_PT198H.grib2 2026-04-11 16:54 666K
20260411T12Z_MSC_GDPS_DownwardShortwaveRadiationFlux-Accum_NTAtm_LatLon0.15_PT198H.grib2 2026-04-11 16:54 270K
20260411T12Z_MSC_GDPS_DownwardShortwaveRadiationFlux-Accum_Sfc_LatLon0.15_PT198H.grib2 2026-04-11 16:54 875K
20260411T12Z_MSC_GDPS_FreezingRain-Accum12h_Sfc_LatLon0.15_PT198H.grib2 2026-04-11 16:54 102K
20260411T12Z_MSC_GDPS_FreezingRain-Accum24h_Sfc_LatLon0.15_PT198H.grib2 2026-04-11 16:54 128K
20260411T12Z_MSC_GDPS_FreezingRain-Accum6h_Sfc_LatLon0.15_PT198H.grib2 2026-04-11 16:54 77K
20260411T12Z_MSC_GDPS_FreezingRain-Accum_Sfc_LatLon0.15_PT198H.grib2 2026-04-11 16:54 322K
20260411T12Z_MSC_GDPS_GeopotentialHeight_IsbL-0001_LatLon0.15_PT198H.grib2 2026-04-11 16:54 397K
20260411T12Z_MSC_GDPS_GeopotentialHeight_IsbL-0005_LatLon0.15_PT198H.grib2 2026-04-11 16:54 506K
20260411T12Z_MSC_GDPS_GeopotentialHeight_IsbL-0010_LatLon0.15_PT198H.grib2 2026-04-11 16:54 434K
20260411T12Z_MSC_GDPS_GeopotentialHeight_IsbL-0020_LatLon0.15_PT198H.grib2 2026-04-11 16:54 575K
20260411T12Z_MSC_GDPS_GeopotentialHeight_IsbL-0030_LatLon0.15_PT198H.grib2 2026-04-11 16:54 583K
20260411T12Z_MSC_GDPS_GeopotentialHeight_IsbL-0050_LatLon0.15_PT198H.grib2 2026-04-11 16:54 582K
20260411T12Z_MSC_GDPS_GeopotentialHeight_IsbL-0100_LatLon0.15_PT198H.grib2 2026-04-11 16:54 621K
20260411T12Z_MSC_GDPS_GeopotentialHeight_IsbL-0150_LatLon0.15_PT198H.grib2 2026-04-11 16:54 637K
20260411T12Z_MSC_GDPS_GeopotentialHeight_IsbL-0175_LatLon0.15_PT198H.grib2 2026-04-11 16:54 640K
20260411T12Z_MSC_GDPS_GeopotentialHeight_IsbL-0200_LatLon0.15_PT198H.grib2 2026-04-11 16:54 643K
20260411T12Z_MSC_GDPS_GeopotentialHeight_IsbL-0225_LatLon0.15_PT198H.grib2 2026-04-11 16:54 646K
20260411T12Z_MSC_GDPS_GeopotentialHeight_IsbL-0250_LatLon0.15_PT198H.grib2 2026-04-11 16:54 645K
20260411T12Z_MSC_GDPS_GeopotentialHeight_IsbL-0275_LatLon0.15_PT198H.grib2 2026-04-11 16:54 644K
20260411T12Z_MSC_GDPS_GeopotentialHeight_IsbL-0300_LatLon0.15_PT198H.grib2 2026-04-11 16:54 643K
20260411T12Z_MSC_GDPS_GeopotentialHeight_IsbL-0350_LatLon0.15_PT198H.grib2 2026-04-11 16:54 633K
20260411T12Z_MSC_GDPS_GeopotentialHeight_IsbL-0400_LatLon0.15_PT198H.grib2 2026-04-11 16:54 622K
20260411T12Z_MSC_GDPS_GeopotentialHeight_IsbL-0450_LatLon0.15_PT198H.grib2 2026-04-11 16:54 544K
20260411T12Z_MSC_GDPS_GeopotentialHeight_IsbL-0500_LatLon0.15_PT198H.grib2 2026-04-11 16:54 534K
20260411T12Z_MSC_GDPS_GeopotentialHeight_IsbL-0550_LatLon0.15_PT198H.grib2 2026-04-11 16:54 698K
20260411T12Z_MSC_GDPS_GeopotentialHeight_IsbL-0600_LatLon0.15_PT198H.grib2 2026-04-11 16:54 693K
20260411T12Z_MSC_GDPS_GeopotentialHeight_IsbL-0650_LatLon0.15_PT198H.grib2 2026-04-11 16:54 692K
20260411T12Z_MSC_GDPS_GeopotentialHeight_IsbL-0700_LatLon0.15_PT198H.grib2 2026-04-11 16:54 695K
20260411T12Z_MSC_GDPS_GeopotentialHeight_IsbL-0750_LatLon0.15_PT198H.grib2 2026-04-11 16:54 694K
20260411T12Z_MSC_GDPS_GeopotentialHeight_IsbL-0800_LatLon0.15_PT198H.grib2 2026-04-11 16:54 708K
20260411T12Z_MSC_GDPS_GeopotentialHeight_IsbL-0850_LatLon0.15_PT198H.grib2 2026-04-11 16:54 713K
20260411T12Z_MSC_GDPS_GeopotentialHeight_IsbL-0875_LatLon0.15_PT198H.grib2 2026-04-11 16:54 723K
20260411T12Z_MSC_GDPS_GeopotentialHeight_IsbL-0900_LatLon0.15_PT198H.grib2 2026-04-11 16:54 728K
20260411T12Z_MSC_GDPS_GeopotentialHeight_IsbL-0925_LatLon0.15_PT198H.grib2 2026-04-11 16:54 735K
20260411T12Z_MSC_GDPS_GeopotentialHeight_IsbL-0950_LatLon0.15_PT198H.grib2 2026-04-11 16:54 741K
20260411T12Z_MSC_GDPS_GeopotentialHeight_IsbL-0970_LatLon0.15_PT198H.grib2 2026-04-11 16:54 754K
20260411T12Z_MSC_GDPS_GeopotentialHeight_IsbL-0985_LatLon0.15_PT198H.grib2 2026-04-11 16:54 769K
20260411T12Z_MSC_GDPS_GeopotentialHeight_IsbL-1000_LatLon0.15_PT198H.grib2 2026-04-11 16:54 790K
20260411T12Z_MSC_GDPS_GeopotentialHeight_IsbL-1015_LatLon0.15_PT198H.grib2 2026-04-11 16:54 811K
20260411T12Z_MSC_GDPS_Humidex_Sfc_LatLon0.15_PT198H.grib2 2026-04-11 16:54 5.3M
20260411T12Z_MSC_GDPS_IcePellets-Accum12h_Sfc_LatLon0.15_PT198H.grib2 2026-04-11 16:54 59K
20260411T12Z_MSC_GDPS_IcePellets-Accum24h_Sfc_LatLon0.15_PT198H.grib2 2026-04-11 16:54 91K
20260411T12Z_MSC_GDPS_IcePellets-Accum6h_Sfc_LatLon0.15_PT198H.grib2 2026-04-11 16:54 34K
20260411T12Z_MSC_GDPS_IcePellets-Accum_Sfc_LatLon0.15_PT198H.grib2 2026-04-11 16:54 211K
20260411T12Z_MSC_GDPS_KIndex_Sfc_LatLon0.15_PT198H.grib2 2026-04-11 16:54 6.5M
20260411T12Z_MSC_GDPS_LatentHeatNetFlux_Sfc_LatLon0.15_PT198H.grib2 2026-04-11 16:54 663K
20260411T12Z_MSC_GDPS_LiftedIndex-MU-VT_IsbL-0500_LatLon0.15_PT198H.grib2 2026-04-11 16:54 5.4M
20260411T12Z_MSC_GDPS_NetLongwaveRadiationFlux-Accum_Sfc_LatLon0.15_PT198H.grib2 2026-04-11 16:54 890K
20260411T12Z_MSC_GDPS_NetShortwaveRadiationFlux-Accum_Sfc_LatLon0.15_PT198H.grib2 2026-04-11 16:54 880K
20260411T12Z_MSC_GDPS_O3MixingRatio_LatLon0.15_PT198H.grib2 2026-04-11 17:07 1.9M
20260411T12Z_MSC_GDPS_O3_EAtm_LatLon0.15_PT198H.grib2 2026-04-11 17:07 2.4M
20260411T12Z_MSC_GDPS_PlanetaryBoundaryLayerHeight_Sfc_LatLon0.15_PT198H.grib2 2026-04-11 16:54 2.4M
20260411T12Z_MSC_GDPS_Precip-Accum12h_Sfc_LatLon0.15_PT198H.grib2 2026-04-11 16:54 4.0M
20260411T12Z_MSC_GDPS_Precip-Accum24h_Sfc_LatLon0.15_PT198H.grib2 2026-04-11 16:54 4.5M
20260411T12Z_MSC_GDPS_Precip-Accum6h_Sfc_LatLon0.15_PT198H.grib2 2026-04-11 16:54 3.8M
20260411T12Z_MSC_GDPS_Precip-Accum_Sfc_LatLon0.15_PT198H.grib2 2026-04-11 16:54 5.0M
20260411T12Z_MSC_GDPS_PrecipRate_Sfc_LatLon0.15_PT198H.grib2 2026-04-11 16:54 2.9M
20260411T12Z_MSC_GDPS_PrecipType-Instant_Sfc_LatLon0.15_PT198H.grib2 2026-04-11 16:54 1.5M
20260411T12Z_MSC_GDPS_Pressure_MSL_LatLon0.15_PT198H.grib2 2026-04-11 16:54 828K
20260411T12Z_MSC_GDPS_Pressure_PVU-1.5_LatLon0.15_PT198H.grib2 2026-04-11 16:54 5.8M
20260411T12Z_MSC_GDPS_Pressure_PVU-1_LatLon0.15_PT198H.grib2 2026-04-11 16:54 6.0M
20260411T12Z_MSC_GDPS_Pressure_PVU-2_LatLon0.15_PT198H.grib2 2026-04-11 16:54 5.6M
20260411T12Z_MSC_GDPS_Pressure_Sfc_LatLon0.15_PT198H.grib2 2026-04-11 16:54 1.1M
20260411T12Z_MSC_GDPS_RadiativeTemp_Sfc_LatLon0.15_PT198H.grib2 2026-04-11 16:54 676K
20260411T12Z_MSC_GDPS_Rain-Accum12h_Sfc_LatLon0.15_PT198H.grib2 2026-04-11 16:54 2.6M
20260411T12Z_MSC_GDPS_Rain-Accum24h_Sfc_LatLon0.15_PT198H.grib2 2026-04-11 16:54 3.0M
20260411T12Z_MSC_GDPS_Rain-Accum6h_Sfc_LatLon0.15_PT198H.grib2 2026-04-11 16:54 2.4M
20260411T12Z_MSC_GDPS_Rain-Accum_Sfc_LatLon0.15_PT198H.grib2 2026-04-11 16:54 4.1M
20260411T12Z_MSC_GDPS_RelativeHumidity_AGL-2m_LatLon0.15_PT198H.grib2 2026-04-11 16:54 1.0M
20260411T12Z_MSC_GDPS_RelativeHumidity_IsbL-0010_LatLon0.15_PT198H.grib2 2026-04-11 16:54 324K
20260411T12Z_MSC_GDPS_RelativeHumidity_IsbL-0020_LatLon0.15_PT198H.grib2 2026-04-11 16:54 348K
20260411T12Z_MSC_GDPS_RelativeHumidity_IsbL-0030_LatLon0.15_PT198H.grib2 2026-04-11 16:54 410K
20260411T12Z_MSC_GDPS_RelativeHumidity_IsbL-0050_LatLon0.15_PT198H.grib2 2026-04-11 16:54 403K
20260411T12Z_MSC_GDPS_RelativeHumidity_IsbL-0100_LatLon0.15_PT198H.grib2 2026-04-11 16:54 473K
20260411T12Z_MSC_GDPS_RelativeHumidity_IsbL-0150_LatLon0.15_PT198H.grib2 2026-04-11 16:54 661K
20260411T12Z_MSC_GDPS_RelativeHumidity_IsbL-0175_LatLon0.15_PT198H.grib2 2026-04-11 16:54 799K
20260411T12Z_MSC_GDPS_RelativeHumidity_IsbL-0200_LatLon0.15_PT198H.grib2 2026-04-11 16:54 712K
20260411T12Z_MSC_GDPS_RelativeHumidity_IsbL-0225_LatLon0.15_PT198H.grib2 2026-04-11 16:54 801K
20260411T12Z_MSC_GDPS_RelativeHumidity_IsbL-0250_LatLon0.15_PT198H.grib2 2026-04-11 16:54 889K
20260411T12Z_MSC_GDPS_RelativeHumidity_IsbL-0275_LatLon0.15_PT198H.grib2 2026-04-11 16:54 910K
20260411T12Z_MSC_GDPS_RelativeHumidity_IsbL-0300_LatLon0.15_PT198H.grib2 2026-04-11 16:54 952K
20260411T12Z_MSC_GDPS_RelativeHumidity_IsbL-0350_LatLon0.15_PT198H.grib2 2026-04-11 16:54 970K
20260411T12Z_MSC_GDPS_RelativeHumidity_IsbL-0400_LatLon0.15_PT198H.grib2 2026-04-11 16:54 1.0M
20260411T12Z_MSC_GDPS_RelativeHumidity_IsbL-0450_LatLon0.15_PT198H.grib2 2026-04-11 16:54 1.0M
20260411T12Z_MSC_GDPS_RelativeHumidity_IsbL-0500_LatLon0.15_PT198H.grib2 2026-04-11 16:54 1.0M
20260411T12Z_MSC_GDPS_RelativeHumidity_IsbL-0550_LatLon0.15_PT198H.grib2 2026-04-11 16:54 1.0M
20260411T12Z_MSC_GDPS_RelativeHumidity_IsbL-0600_LatLon0.15_PT198H.grib2 2026-04-11 16:54 1.1M
20260411T12Z_MSC_GDPS_RelativeHumidity_IsbL-0650_LatLon0.15_PT198H.grib2 2026-04-11 16:54 1.1M
20260411T12Z_MSC_GDPS_RelativeHumidity_IsbL-0700_LatLon0.15_PT198H.grib2 2026-04-11 16:54 1.1M
20260411T12Z_MSC_GDPS_RelativeHumidity_IsbL-0750_LatLon0.15_PT198H.grib2 2026-04-11 16:54 1.1M
20260411T12Z_MSC_GDPS_RelativeHumidity_IsbL-0800_LatLon0.15_PT198H.grib2 2026-04-11 16:54 1.2M
20260411T12Z_MSC_GDPS_RelativeHumidity_IsbL-0850_LatLon0.15_PT198H.grib2 2026-04-11 16:54 1.3M
20260411T12Z_MSC_GDPS_RelativeHumidity_IsbL-0875_LatLon0.15_PT198H.grib2 2026-04-11 16:54 1.3M
20260411T12Z_MSC_GDPS_RelativeHumidity_IsbL-0900_LatLon0.15_PT198H.grib2 2026-04-11 16:54 1.2M
20260411T12Z_MSC_GDPS_RelativeHumidity_IsbL-0925_LatLon0.15_PT198H.grib2 2026-04-11 16:54 1.2M
20260411T12Z_MSC_GDPS_RelativeHumidity_IsbL-0950_LatLon0.15_PT198H.grib2 2026-04-11 16:54 1.2M
20260411T12Z_MSC_GDPS_RelativeHumidity_IsbL-0970_LatLon0.15_PT198H.grib2 2026-04-11 16:54 1.2M
20260411T12Z_MSC_GDPS_RelativeHumidity_IsbL-0985_LatLon0.15_PT198H.grib2 2026-04-11 16:54 1.1M
20260411T12Z_MSC_GDPS_RelativeHumidity_IsbL-1000_LatLon0.15_PT198H.grib2 2026-04-11 16:54 1.1M
20260411T12Z_MSC_GDPS_RelativeHumidity_IsbL-1015_LatLon0.15_PT198H.grib2 2026-04-11 16:54 1.0M
20260411T12Z_MSC_GDPS_RelativeVorticity_IsbL-0200_LatLon0.15_PT198H.grib2 2026-04-11 16:54 1.5M
20260411T12Z_MSC_GDPS_RelativeVorticity_IsbL-0250_LatLon0.15_PT198H.grib2 2026-04-11 16:54 1.3M
20260411T12Z_MSC_GDPS_RelativeVorticity_IsbL-0500_LatLon0.15_PT198H.grib2 2026-04-11 16:54 1.5M
20260411T12Z_MSC_GDPS_RelativeVorticity_IsbL-0700_LatLon0.15_PT198H.grib2 2026-04-11 16:54 1.3M
20260411T12Z_MSC_GDPS_RelativeVorticity_IsbL-0850_LatLon0.15_PT198H.grib2 2026-04-11 16:54 1.6M
20260411T12Z_MSC_GDPS_Runoff-Accum_Sfc_LatLon0.15_PT198H.grib2 2026-04-11 16:54 105K
20260411T12Z_MSC_GDPS_SensibleHeatNetFlux_Sfc_LatLon0.15_PT198H.grib2 2026-04-11 16:54 455K
20260411T12Z_MSC_GDPS_ShowalterIndex_IsbL-0500_LatLon0.15_PT198H.grib2 2026-04-11 16:54 6.2M
20260411T12Z_MSC_GDPS_Snow-Accum12h_Sfc_LatLon0.15_PT198H.grib2 2026-04-11 16:54 1.3M
20260411T12Z_MSC_GDPS_Snow-Accum24h_Sfc_LatLon0.15_PT198H.grib2 2026-04-11 16:54 1.4M
20260411T12Z_MSC_GDPS_Snow-Accum6h_Sfc_LatLon0.15_PT198H.grib2 2026-04-11 16:54 1.4M
20260411T12Z_MSC_GDPS_Snow-Accum_Sfc_LatLon0.15_PT198H.grib2 2026-04-11 16:54 1.9M
20260411T12Z_MSC_GDPS_SnowDensity_Sfc_LatLon0.15_PT198H.grib2 2026-04-11 16:54 271K
20260411T12Z_MSC_GDPS_SnowDepth_Sfc_LatLon0.15_PT198H.grib2 2026-04-11 16:54 1.8M
20260411T12Z_MSC_GDPS_SoilTemp_DBS-0to10cm_LatLon0.15_PT198H.grib2 2026-04-11 16:54 514K
20260411T12Z_MSC_GDPS_SoilTemp_Sfc_LatLon0.15_PT198H.grib2 2026-04-11 16:54 582K
20260411T12Z_MSC_GDPS_SoilVolumetricIceContent_Sfc_LatLon0.15_PT198H.grib2 2026-04-11 16:54 223K
20260411T12Z_MSC_GDPS_SoilVolumetricWaterContent_DBS-0to10cm_LatLon0.15_PT198H.grib2 2026-04-11 16:54 552K
20260411T12Z_MSC_GDPS_SoilVolumetricWaterContent_DBS-0to1cm_LatLon0.15_PT198H.grib2 2026-04-11 16:54 648K
20260411T12Z_MSC_GDPS_SpecificHumidity_AGL-120m_LatLon0.15_PT198H.grib2 2026-04-11 16:54 1.1M
20260411T12Z_MSC_GDPS_SpecificHumidity_AGL-2m_LatLon0.15_PT198H.grib2 2026-04-11 16:54 1.2M
20260411T12Z_MSC_GDPS_SpecificHumidity_AGL-40m_LatLon0.15_PT198H.grib2 2026-04-11 16:54 1.1M
20260411T12Z_MSC_GDPS_SpecificHumidity_AGL-80m_LatLon0.15_PT198H.grib2 2026-04-11 16:54 1.1M
20260411T12Z_MSC_GDPS_SpecificHumidity_IsbL-0001_LatLon0.15_PT198H.grib2 2026-04-11 16:54 1.0M
20260411T12Z_MSC_GDPS_SpecificHumidity_IsbL-0005_LatLon0.15_PT198H.grib2 2026-04-11 16:54 1.0M
20260411T12Z_MSC_GDPS_SpecificHumidity_IsbL-0010_LatLon0.15_PT198H.grib2 2026-04-11 16:54 1.1M
20260411T12Z_MSC_GDPS_SpecificHumidity_IsbL-0020_LatLon0.15_PT198H.grib2 2026-04-11 16:54 1.5M
20260411T12Z_MSC_GDPS_SpecificHumidity_IsbL-0030_LatLon0.15_PT198H.grib2 2026-04-11 16:54 1.5M
20260411T12Z_MSC_GDPS_SpecificHumidity_IsbL-0050_LatLon0.15_PT198H.grib2 2026-04-11 16:54 1.2M
20260411T12Z_MSC_GDPS_SpecificHumidity_IsbL-0100_LatLon0.15_PT198H.grib2 2026-04-11 16:54 1.2M
20260411T12Z_MSC_GDPS_SpecificHumidity_IsbL-0150_LatLon0.15_PT198H.grib2 2026-04-11 16:54 1.3M
20260411T12Z_MSC_GDPS_SpecificHumidity_IsbL-0175_LatLon0.15_PT198H.grib2 2026-04-11 16:54 1.3M
20260411T12Z_MSC_GDPS_SpecificHumidity_IsbL-0200_LatLon0.15_PT198H.grib2 2026-04-11 16:54 1.3M
20260411T12Z_MSC_GDPS_SpecificHumidity_IsbL-0225_LatLon0.15_PT198H.grib2 2026-04-11 16:54 1.3M
20260411T12Z_MSC_GDPS_SpecificHumidity_IsbL-0250_LatLon0.15_PT198H.grib2 2026-04-11 16:54 1.5M
20260411T12Z_MSC_GDPS_SpecificHumidity_IsbL-0275_LatLon0.15_PT198H.grib2 2026-04-11 16:54 1.3M
20260411T12Z_MSC_GDPS_SpecificHumidity_IsbL-0300_LatLon0.15_PT198H.grib2 2026-04-11 16:54 1.3M
20260411T12Z_MSC_GDPS_SpecificHumidity_IsbL-0350_LatLon0.15_PT198H.grib2 2026-04-11 16:54 1.2M
20260411T12Z_MSC_GDPS_SpecificHumidity_IsbL-0400_LatLon0.15_PT198H.grib2 2026-04-11 16:54 1.5M
20260411T12Z_MSC_GDPS_SpecificHumidity_IsbL-0450_LatLon0.15_PT198H.grib2 2026-04-11 16:54 1.3M
20260411T12Z_MSC_GDPS_SpecificHumidity_IsbL-0500_LatLon0.15_PT198H.grib2 2026-04-11 16:54 1.4M
20260411T12Z_MSC_GDPS_SpecificHumidity_IsbL-0550_LatLon0.15_PT198H.grib2 2026-04-11 16:54 1.6M
20260411T12Z_MSC_GDPS_SpecificHumidity_IsbL-0600_LatLon0.15_PT198H.grib2 2026-04-11 16:54 1.4M
20260411T12Z_MSC_GDPS_SpecificHumidity_IsbL-0650_LatLon0.15_PT198H.grib2 2026-04-11 16:54 1.5M
20260411T12Z_MSC_GDPS_SpecificHumidity_IsbL-0700_LatLon0.15_PT198H.grib2 2026-04-11 16:54 1.6M
20260411T12Z_MSC_GDPS_SpecificHumidity_IsbL-0750_LatLon0.15_PT198H.grib2 2026-04-11 16:54 1.7M
20260411T12Z_MSC_GDPS_SpecificHumidity_IsbL-0800_LatLon0.15_PT198H.grib2 2026-04-11 16:54 1.8M
20260411T12Z_MSC_GDPS_SpecificHumidity_IsbL-0850_LatLon0.15_PT198H.grib2 2026-04-11 16:54 1.9M
20260411T12Z_MSC_GDPS_SpecificHumidity_IsbL-0875_LatLon0.15_PT198H.grib2 2026-04-11 16:54 1.9M
20260411T12Z_MSC_GDPS_SpecificHumidity_IsbL-0900_LatLon0.15_PT198H.grib2 2026-04-11 16:54 1.6M
20260411T12Z_MSC_GDPS_SpecificHumidity_IsbL-0925_LatLon0.15_PT198H.grib2 2026-04-11 16:54 1.6M
20260411T12Z_MSC_GDPS_SpecificHumidity_IsbL-0950_LatLon0.15_PT198H.grib2 2026-04-11 16:54 1.6M
20260411T12Z_MSC_GDPS_SpecificHumidity_IsbL-0970_LatLon0.15_PT198H.grib2 2026-04-11 16:54 1.5M
20260411T12Z_MSC_GDPS_SpecificHumidity_IsbL-0985_LatLon0.15_PT198H.grib2 2026-04-11 16:54 1.5M
20260411T12Z_MSC_GDPS_SpecificHumidity_IsbL-1000_LatLon0.15_PT198H.grib2 2026-04-11 16:54 1.5M
20260411T12Z_MSC_GDPS_SpecificHumidity_IsbL-1015_LatLon0.15_PT198H.grib2 2026-04-11 16:54 1.4M
20260411T12Z_MSC_GDPS_SpecificHumidity_Sfc_LatLon0.15_PT198H.grib2 2026-04-11 16:54 664K
20260411T12Z_MSC_GDPS_Thickness_IsbL-0850to0700_LatLon0.15_PT198H.grib2 2026-04-11 16:54 474K
20260411T12Z_MSC_GDPS_Thickness_IsbL-1000to0500_LatLon0.15_PT198H.grib2 2026-04-11 16:54 377K
20260411T12Z_MSC_GDPS_Thickness_IsbL-1000to0850_LatLon0.15_PT198H.grib2 2026-04-11 16:54 495K
20260411T12Z_MSC_GDPS_TotalCloudCover_Sfc_LatLon0.15_PT198H.grib2 2026-04-11 16:54 816K
20260411T12Z_MSC_GDPS_TotalTotalsIndex_Sfc_LatLon0.15_PT198H.grib2 2026-04-11 16:54 6.2M
20260411T12Z_MSC_GDPS_UVIndex-ClearSky-Max24h_Sfc_LatLon0.15_PT198H.grib2 2026-04-11 17:07 2.2M
20260411T12Z_MSC_GDPS_UVIndex-ClearSky_Sfc_LatLon0.15_PT198H.grib2 2026-04-11 17:07 1.0M
20260411T12Z_MSC_GDPS_UVIndex-Max24h_Sfc_LatLon0.15_PT198H.grib2 2026-04-11 17:07 3.2M
20260411T12Z_MSC_GDPS_UVIndex_Sfc_LatLon0.15_PT198H.grib2 2026-04-11 17:07 1.5M
20260411T12Z_MSC_GDPS_UpwardLongwaveRadiationFlux_NTAtm_LatLon0.15_PT198H.grib2 2026-04-11 16:54 841K
20260411T12Z_MSC_GDPS_VerticalVelocity_IsbL-0200_LatLon0.15_PT198H.grib2 2026-04-11 16:54 1.1M
20260411T12Z_MSC_GDPS_VerticalVelocity_IsbL-0250_LatLon0.15_PT198H.grib2 2026-04-11 16:54 1.0M
20260411T12Z_MSC_GDPS_VerticalVelocity_IsbL-0500_LatLon0.15_PT198H.grib2 2026-04-11 16:54 1.0M
20260411T12Z_MSC_GDPS_VerticalVelocity_IsbL-0600_LatLon0.15_PT198H.grib2 2026-04-11 16:54 1.1M
20260411T12Z_MSC_GDPS_VerticalVelocity_IsbL-0700_LatLon0.15_PT198H.grib2 2026-04-11 16:54 1.1M
20260411T12Z_MSC_GDPS_VerticalVelocity_IsbL-0850_LatLon0.15_PT198H.grib2 2026-04-11 16:54 1.3M
20260411T12Z_MSC_GDPS_WindChill_Sfc_LatLon0.15_PT198H.grib2 2026-04-11 16:54 5.3M
20260411T12Z_MSC_GDPS_WindDir_AGL-10m_LatLon0.15_PT198H.grib2 2026-04-11 16:54 1.4M
20260411T12Z_MSC_GDPS_WindDir_AGL-120m_LatLon0.15_PT198H.grib2 2026-04-11 16:54 1.4M
20260411T12Z_MSC_GDPS_WindDir_AGL-40m_LatLon0.15_PT198H.grib2 2026-04-11 16:54 1.4M
20260411T12Z_MSC_GDPS_WindDir_AGL-80m_LatLon0.15_PT198H.grib2 2026-04-11 16:54 1.4M
20260411T12Z_MSC_GDPS_WindDir_IsbL-0001_LatLon0.15_PT198H.grib2 2026-04-11 16:54 637K
20260411T12Z_MSC_GDPS_WindDir_IsbL-0005_LatLon0.15_PT198H.grib2 2026-04-11 16:54 797K
20260411T12Z_MSC_GDPS_WindDir_IsbL-0010_LatLon0.15_PT198H.grib2 2026-04-11 16:54 852K
20260411T12Z_MSC_GDPS_WindDir_IsbL-0020_LatLon0.15_PT198H.grib2 2026-04-11 16:54 924K
20260411T12Z_MSC_GDPS_WindDir_IsbL-0030_LatLon0.15_PT198H.grib2 2026-04-11 16:54 889K
20260411T12Z_MSC_GDPS_WindDir_IsbL-0050_LatLon0.15_PT198H.grib2 2026-04-11 16:54 939K
20260411T12Z_MSC_GDPS_WindDir_IsbL-0100_LatLon0.15_PT198H.grib2 2026-04-11 16:54 1.0M
20260411T12Z_MSC_GDPS_WindDir_IsbL-0150_LatLon0.15_PT198H.grib2 2026-04-11 16:54 1.0M
20260411T12Z_MSC_GDPS_WindDir_IsbL-0175_LatLon0.15_PT198H.grib2 2026-04-11 16:54 1.0M
20260411T12Z_MSC_GDPS_WindDir_IsbL-0200_LatLon0.15_PT198H.grib2 2026-04-11 16:54 1.1M
20260411T12Z_MSC_GDPS_WindDir_IsbL-0225_LatLon0.15_PT198H.grib2 2026-04-11 16:54 1.1M
20260411T12Z_MSC_GDPS_WindDir_IsbL-0250_LatLon0.15_PT198H.grib2 2026-04-11 16:54 1.1M
20260411T12Z_MSC_GDPS_WindDir_IsbL-0275_LatLon0.15_PT198H.grib2 2026-04-11 16:54 1.2M
20260411T12Z_MSC_GDPS_WindDir_IsbL-0300_LatLon0.15_PT198H.grib2 2026-04-11 16:54 1.2M
20260411T12Z_MSC_GDPS_WindDir_IsbL-0350_LatLon0.15_PT198H.grib2 2026-04-11 16:54 1.2M
20260411T12Z_MSC_GDPS_WindDir_IsbL-0400_LatLon0.15_PT198H.grib2 2026-04-11 16:54 1.3M
20260411T12Z_MSC_GDPS_WindDir_IsbL-0450_LatLon0.15_PT198H.grib2 2026-04-11 16:54 1.3M
20260411T12Z_MSC_GDPS_WindDir_IsbL-0500_LatLon0.15_PT198H.grib2 2026-04-11 16:54 1.4M
20260411T12Z_MSC_GDPS_WindDir_IsbL-0550_LatLon0.15_PT198H.grib2 2026-04-11 16:54 1.4M
20260411T12Z_MSC_GDPS_WindDir_IsbL-0600_LatLon0.15_PT198H.grib2 2026-04-11 16:54 1.5M
20260411T12Z_MSC_GDPS_WindDir_IsbL-0650_LatLon0.15_PT198H.grib2 2026-04-11 16:54 1.5M
20260411T12Z_MSC_GDPS_WindDir_IsbL-0700_LatLon0.15_PT198H.grib2 2026-04-11 16:54 1.6M
20260411T12Z_MSC_GDPS_WindDir_IsbL-0750_LatLon0.15_PT198H.grib2 2026-04-11 16:54 1.7M
20260411T12Z_MSC_GDPS_WindDir_IsbL-0800_LatLon0.15_PT198H.grib2 2026-04-11 16:54 1.8M
20260411T12Z_MSC_GDPS_WindDir_IsbL-0850_LatLon0.15_PT198H.grib2 2026-04-11 16:54 1.9M
20260411T12Z_MSC_GDPS_WindDir_IsbL-0875_LatLon0.15_PT198H.grib2 2026-04-11 16:54 2.0M
20260411T12Z_MSC_GDPS_WindDir_IsbL-0900_LatLon0.15_PT198H.grib2 2026-04-11 16:54 2.0M
20260411T12Z_MSC_GDPS_WindDir_IsbL-0925_LatLon0.15_PT198H.grib2 2026-04-11 16:54 2.0M
20260411T12Z_MSC_GDPS_WindDir_IsbL-0950_LatLon0.15_PT198H.grib2 2026-04-11 16:54 2.0M
20260411T12Z_MSC_GDPS_WindDir_IsbL-0970_LatLon0.15_PT198H.grib2 2026-04-11 16:54 2.0M
20260411T12Z_MSC_GDPS_WindDir_IsbL-0985_LatLon0.15_PT198H.grib2 2026-04-11 16:54 2.1M
20260411T12Z_MSC_GDPS_WindDir_IsbL-1000_LatLon0.15_PT198H.grib2 2026-04-11 16:54 2.1M
20260411T12Z_MSC_GDPS_WindDir_IsbL-1015_LatLon0.15_PT198H.grib2 2026-04-11 16:54 2.1M
20260411T12Z_MSC_GDPS_WindGust-Max_AGL-10m_LatLon0.15_PT198H.grib2 2026-04-11 16:54 2.2M
20260411T12Z_MSC_GDPS_WindGust-Min_AGL-10m_LatLon0.15_PT198H.grib2 2026-04-11 16:54 2.1M
20260411T12Z_MSC_GDPS_WindGust_AGL-10m_LatLon0.15_PT198H.grib2 2026-04-11 16:54 2.1M
20260411T12Z_MSC_GDPS_WindSpeed_AGL-10m_LatLon0.15_PT198H.grib2 2026-04-11 16:54 1.1M
20260411T12Z_MSC_GDPS_WindSpeed_AGL-120m_LatLon0.15_PT198H.grib2 2026-04-11 16:54 1.2M
20260411T12Z_MSC_GDPS_WindSpeed_AGL-40m_LatLon0.15_PT198H.grib2 2026-04-11 16:54 1.2M
20260411T12Z_MSC_GDPS_WindSpeed_AGL-80m_LatLon0.15_PT198H.grib2 2026-04-11 16:54 1.2M
20260411T12Z_MSC_GDPS_WindSpeed_IsbL-0001_LatLon0.15_PT198H.grib2 2026-04-11 16:54 633K
20260411T12Z_MSC_GDPS_WindSpeed_IsbL-0005_LatLon0.15_PT198H.grib2 2026-04-11 16:54 683K
20260411T12Z_MSC_GDPS_WindSpeed_IsbL-0010_LatLon0.15_PT198H.grib2 2026-04-11 16:54 622K
20260411T12Z_MSC_GDPS_WindSpeed_IsbL-0020_LatLon0.15_PT198H.grib2 2026-04-11 16:54 663K
20260411T12Z_MSC_GDPS_WindSpeed_IsbL-0030_LatLon0.15_PT198H.grib2 2026-04-11 16:54 853K
20260411T12Z_MSC_GDPS_WindSpeed_IsbL-0050_LatLon0.15_PT198H.grib2 2026-04-11 16:54 1.0M
20260411T12Z_MSC_GDPS_WindSpeed_IsbL-0100_LatLon0.15_PT198H.grib2 2026-04-11 16:54 1.1M
20260411T12Z_MSC_GDPS_WindSpeed_IsbL-0150_LatLon0.15_PT198H.grib2 2026-04-11 16:54 1.0M
20260411T12Z_MSC_GDPS_WindSpeed_IsbL-0175_LatLon0.15_PT198H.grib2 2026-04-11 16:54 1.0M
20260411T12Z_MSC_GDPS_WindSpeed_IsbL-0200_LatLon0.15_PT198H.grib2 2026-04-11 16:54 1.1M
20260411T12Z_MSC_GDPS_WindSpeed_IsbL-0225_LatLon0.15_PT198H.grib2 2026-04-11 16:54 1.1M
20260411T12Z_MSC_GDPS_WindSpeed_IsbL-0250_LatLon0.15_PT198H.grib2 2026-04-11 16:54 1.1M
20260411T12Z_MSC_GDPS_WindSpeed_IsbL-0275_LatLon0.15_PT198H.grib2 2026-04-11 16:54 1.1M
20260411T12Z_MSC_GDPS_WindSpeed_IsbL-0300_LatLon0.15_PT198H.grib2 2026-04-11 16:54 1.1M
20260411T12Z_MSC_GDPS_WindSpeed_IsbL-0350_LatLon0.15_PT198H.grib2 2026-04-11 16:54 1.1M
20260411T12Z_MSC_GDPS_WindSpeed_IsbL-0400_LatLon0.15_PT198H.grib2 2026-04-11 16:54 1.1M
20260411T12Z_MSC_GDPS_WindSpeed_IsbL-0450_LatLon0.15_PT198H.grib2 2026-04-11 16:54 1.1M
20260411T12Z_MSC_GDPS_WindSpeed_IsbL-0500_LatLon0.15_PT198H.grib2 2026-04-11 16:54 1.1M
20260411T12Z_MSC_GDPS_WindSpeed_IsbL-0550_LatLon0.15_PT198H.grib2 2026-04-11 16:54 1.1M
20260411T12Z_MSC_GDPS_WindSpeed_IsbL-0600_LatLon0.15_PT198H.grib2 2026-04-11 16:54 1.1M
20260411T12Z_MSC_GDPS_WindSpeed_IsbL-0650_LatLon0.15_PT198H.grib2 2026-04-11 16:54 1.2M
20260411T12Z_MSC_GDPS_WindSpeed_IsbL-0700_LatLon0.15_PT198H.grib2 2026-04-11 16:54 1.2M
20260411T12Z_MSC_GDPS_WindSpeed_IsbL-0750_LatLon0.15_PT198H.grib2 2026-04-11 16:54 1.6M
20260411T12Z_MSC_GDPS_WindSpeed_IsbL-0800_LatLon0.15_PT198H.grib2 2026-04-11 16:54 1.6M
20260411T12Z_MSC_GDPS_WindSpeed_IsbL-0850_LatLon0.15_PT198H.grib2 2026-04-11 16:54 1.7M
20260411T12Z_MSC_GDPS_WindSpeed_IsbL-0875_LatLon0.15_PT198H.grib2 2026-04-11 16:54 1.8M
20260411T12Z_MSC_GDPS_WindSpeed_IsbL-0900_LatLon0.15_PT198H.grib2 2026-04-11 16:54 1.8M
20260411T12Z_MSC_GDPS_WindSpeed_IsbL-0925_LatLon0.15_PT198H.grib2 2026-04-11 16:54 1.8M
20260411T12Z_MSC_GDPS_WindSpeed_IsbL-0950_LatLon0.15_PT198H.grib2 2026-04-11 16:54 1.9M
20260411T12Z_MSC_GDPS_WindSpeed_IsbL-0970_LatLon0.15_PT198H.grib2 2026-04-11 16:54 1.9M
20260411T12Z_MSC_GDPS_WindSpeed_IsbL-0985_LatLon0.15_PT198H.grib2 2026-04-11 16:54 1.9M
20260411T12Z_MSC_GDPS_WindSpeed_IsbL-1000_LatLon0.15_PT198H.grib2 2026-04-11 16:54 1.9M
20260411T12Z_MSC_GDPS_WindSpeed_IsbL-1015_LatLon0.15_PT198H.grib2 2026-04-11 16:54 1.8M
20260411T12Z_MSC_GDPS_WindU_AGL-10m_LatLon0.15_PT198H.grib2 2026-04-11 16:54 1.3M
20260411T12Z_MSC_GDPS_WindU_AGL-120m_LatLon0.15_PT198H.grib2 2026-04-11 16:54 1.0M
20260411T12Z_MSC_GDPS_WindU_AGL-40m_LatLon0.15_PT198H.grib2 2026-04-11 16:54 973K
20260411T12Z_MSC_GDPS_WindU_AGL-80m_LatLon0.15_PT198H.grib2 2026-04-11 16:54 1.0M
20260411T12Z_MSC_GDPS_WindU_IsbL-0001_LatLon0.15_PT198H.grib2 2026-04-11 16:54 636K
20260411T12Z_MSC_GDPS_WindU_IsbL-0005_LatLon0.15_PT198H.grib2 2026-04-11 16:54 682K
20260411T12Z_MSC_GDPS_WindU_IsbL-0010_LatLon0.15_PT198H.grib2 2026-04-11 16:54 697K
20260411T12Z_MSC_GDPS_WindU_IsbL-0020_LatLon0.15_PT198H.grib2 2026-04-11 16:54 732K
20260411T12Z_MSC_GDPS_WindU_IsbL-0030_LatLon0.15_PT198H.grib2 2026-04-11 16:54 733K
20260411T12Z_MSC_GDPS_WindU_IsbL-0050_LatLon0.15_PT198H.grib2 2026-04-11 16:54 700K
20260411T12Z_MSC_GDPS_WindU_IsbL-0100_LatLon0.15_PT198H.grib2 2026-04-11 16:54 923K
20260411T12Z_MSC_GDPS_WindU_IsbL-0150_LatLon0.15_PT198H.grib2 2026-04-11 16:54 1.0M
20260411T12Z_MSC_GDPS_WindU_IsbL-0175_LatLon0.15_PT198H.grib2 2026-04-11 16:54 1.0M
20260411T12Z_MSC_GDPS_WindU_IsbL-0200_LatLon0.15_PT198H.grib2 2026-04-11 16:54 1.1M
20260411T12Z_MSC_GDPS_WindU_IsbL-0225_LatLon0.15_PT198H.grib2 2026-04-11 16:54 860K
20260411T12Z_MSC_GDPS_WindU_IsbL-0250_LatLon0.15_PT198H.grib2 2026-04-11 16:54 862K
20260411T12Z_MSC_GDPS_WindU_IsbL-0275_LatLon0.15_PT198H.grib2 2026-04-11 16:54 889K
20260411T12Z_MSC_GDPS_WindU_IsbL-0300_LatLon0.15_PT198H.grib2 2026-04-11 16:54 877K
20260411T12Z_MSC_GDPS_WindU_IsbL-0350_LatLon0.15_PT198H.grib2 2026-04-11 16:54 891K
20260411T12Z_MSC_GDPS_WindU_IsbL-0400_LatLon0.15_PT198H.grib2 2026-04-11 16:54 891K
20260411T12Z_MSC_GDPS_WindU_IsbL-0450_LatLon0.15_PT198H.grib2 2026-04-11 16:54 1.1M
20260411T12Z_MSC_GDPS_WindU_IsbL-0500_LatLon0.15_PT198H.grib2 2026-04-11 16:54 1.1M
20260411T12Z_MSC_GDPS_WindU_IsbL-0550_LatLon0.15_PT198H.grib2 2026-04-11 16:54 1.1M
20260411T12Z_MSC_GDPS_WindU_IsbL-0600_LatLon0.15_PT198H.grib2 2026-04-11 16:54 1.1M
20260411T12Z_MSC_GDPS_WindU_IsbL-0650_LatLon0.15_PT198H.grib2 2026-04-11 16:54 1.2M
20260411T12Z_MSC_GDPS_WindU_IsbL-0700_LatLon0.15_PT198H.grib2 2026-04-11 16:54 1.2M
20260411T12Z_MSC_GDPS_WindU_IsbL-0750_LatLon0.15_PT198H.grib2 2026-04-11 16:54 1.3M
20260411T12Z_MSC_GDPS_WindU_IsbL-0800_LatLon0.15_PT198H.grib2 2026-04-11 16:54 1.3M
20260411T12Z_MSC_GDPS_WindU_IsbL-0850_LatLon0.15_PT198H.grib2 2026-04-11 16:54 1.4M
20260411T12Z_MSC_GDPS_WindU_IsbL-0875_LatLon0.15_PT198H.grib2 2026-04-11 16:54 1.5M
20260411T12Z_MSC_GDPS_WindU_IsbL-0900_LatLon0.15_PT198H.grib2 2026-04-11 16:54 1.5M
20260411T12Z_MSC_GDPS_WindU_IsbL-0925_LatLon0.15_PT198H.grib2 2026-04-11 16:54 1.5M
20260411T12Z_MSC_GDPS_WindU_IsbL-0950_LatLon0.15_PT198H.grib2 2026-04-11 16:54 1.4M
20260411T12Z_MSC_GDPS_WindU_IsbL-0970_LatLon0.15_PT198H.grib2 2026-04-11 16:54 1.4M
20260411T12Z_MSC_GDPS_WindU_IsbL-0985_LatLon0.15_PT198H.grib2 2026-04-11 16:54 1.4M
20260411T12Z_MSC_GDPS_WindU_IsbL-1000_LatLon0.15_PT198H.grib2 2026-04-11 16:54 1.4M
20260411T12Z_MSC_GDPS_WindU_IsbL-1015_LatLon0.15_PT198H.grib2 2026-04-11 16:54 1.3M
20260411T12Z_MSC_GDPS_WindV_AGL-10m_LatLon0.15_PT198H.grib2 2026-04-11 16:54 1.6M
20260411T12Z_MSC_GDPS_WindV_AGL-120m_LatLon0.15_PT198H.grib2 2026-04-11 16:54 1.0M
20260411T12Z_MSC_GDPS_WindV_AGL-40m_LatLon0.15_PT198H.grib2 2026-04-11 16:54 1.0M
20260411T12Z_MSC_GDPS_WindV_AGL-80m_LatLon0.15_PT198H.grib2 2026-04-11 16:54 1.0M
20260411T12Z_MSC_GDPS_WindV_IsbL-0001_LatLon0.15_PT198H.grib2 2026-04-11 16:54 692K
20260411T12Z_MSC_GDPS_WindV_IsbL-0005_LatLon0.15_PT198H.grib2 2026-04-11 16:54 769K
20260411T12Z_MSC_GDPS_WindV_IsbL-0010_LatLon0.15_PT198H.grib2 2026-04-11 16:54 623K
20260411T12Z_MSC_GDPS_WindV_IsbL-0020_LatLon0.15_PT198H.grib2 2026-04-11 16:54 850K
20260411T12Z_MSC_GDPS_WindV_IsbL-0030_LatLon0.15_PT198H.grib2 2026-04-11 16:54 850K
20260411T12Z_MSC_GDPS_WindV_IsbL-0050_LatLon0.15_PT198H.grib2 2026-04-11 16:54 902K
20260411T12Z_MSC_GDPS_WindV_IsbL-0100_LatLon0.15_PT198H.grib2 2026-04-11 16:54 853K
20260411T12Z_MSC_GDPS_WindV_IsbL-0150_LatLon0.15_PT198H.grib2 2026-04-11 16:54 1.0M
20260411T12Z_MSC_GDPS_WindV_IsbL-0175_LatLon0.15_PT198H.grib2 2026-04-11 16:54 1.0M
20260411T12Z_MSC_GDPS_WindV_IsbL-0200_LatLon0.15_PT198H.grib2 2026-04-11 16:54 846K
20260411T12Z_MSC_GDPS_WindV_IsbL-0225_LatLon0.15_PT198H.grib2 2026-04-11 16:54 855K
20260411T12Z_MSC_GDPS_WindV_IsbL-0250_LatLon0.15_PT198H.grib2 2026-04-11 16:54 914K
20260411T12Z_MSC_GDPS_WindV_IsbL-0275_LatLon0.15_PT198H.grib2 2026-04-11 16:54 941K
20260411T12Z_MSC_GDPS_WindV_IsbL-0300_LatLon0.15_PT198H.grib2 2026-04-11 16:54 930K
20260411T12Z_MSC_GDPS_WindV_IsbL-0350_LatLon0.15_PT198H.grib2 2026-04-11 16:54 884K
20260411T12Z_MSC_GDPS_WindV_IsbL-0400_LatLon0.15_PT198H.grib2 2026-04-11 16:54 882K
20260411T12Z_MSC_GDPS_WindV_IsbL-0450_LatLon0.15_PT198H.grib2 2026-04-11 16:54 882K
20260411T12Z_MSC_GDPS_WindV_IsbL-0500_LatLon0.15_PT198H.grib2 2026-04-11 16:54 1.1M
20260411T12Z_MSC_GDPS_WindV_IsbL-0550_LatLon0.15_PT198H.grib2 2026-04-11 16:54 1.1M
20260411T12Z_MSC_GDPS_WindV_IsbL-0600_LatLon0.15_PT198H.grib2 2026-04-11 16:54 1.1M
20260411T12Z_MSC_GDPS_WindV_IsbL-0650_LatLon0.15_PT198H.grib2 2026-04-11 16:54 1.2M
20260411T12Z_MSC_GDPS_WindV_IsbL-0700_LatLon0.15_PT198H.grib2 2026-04-11 16:54 1.2M
20260411T12Z_MSC_GDPS_WindV_IsbL-0750_LatLon0.15_PT198H.grib2 2026-04-11 16:54 1.3M
20260411T12Z_MSC_GDPS_WindV_IsbL-0800_LatLon0.15_PT198H.grib2 2026-04-11 16:54 1.3M
20260411T12Z_MSC_GDPS_WindV_IsbL-0850_LatLon0.15_PT198H.grib2 2026-04-11 16:54 1.4M
20260411T12Z_MSC_GDPS_WindV_IsbL-0875_LatLon0.15_PT198H.grib2 2026-04-11 16:54 1.4M
20260411T12Z_MSC_GDPS_WindV_IsbL-0900_LatLon0.15_PT198H.grib2 2026-04-11 16:54 1.5M
20260411T12Z_MSC_GDPS_WindV_IsbL-0925_LatLon0.15_PT198H.grib2 2026-04-11 16:54 1.5M
20260411T12Z_MSC_GDPS_WindV_IsbL-0950_LatLon0.15_PT198H.grib2 2026-04-11 16:54 1.4M
20260411T12Z_MSC_GDPS_WindV_IsbL-0970_LatLon0.15_PT198H.grib2 2026-04-11 16:54 1.4M
20260411T12Z_MSC_GDPS_WindV_IsbL-0985_LatLon0.15_PT198H.grib2 2026-04-11 16:54 1.4M
20260411T12Z_MSC_GDPS_WindV_IsbL-1000_LatLon0.15_PT198H.grib2 2026-04-11 16:54 1.7M
20260411T12Z_MSC_GDPS_WindV_IsbL-1015_LatLon0.15_PT198H.grib2 2026-04-11 16:54 1.6M